[[{"header":{"parameterUnit":"m.s-1","parameterCategory":1,"la1":30.2991,"la2":30.254,"lo1":-89.0895,"lo2":-89.0444,"dy":0.0017,"dx":0.0017,"nx":28,"ny":28,"refTime":"2025-08-25T03:00:00:Z","depth":0,"parameterNumber":2,"parameterNumberName":"U-component_of_WINDS"},"data":[0,0,0,0,0,0,0,0,0,0,0,0,0,0,0,0,0,0,0,0,0,0,0,0,0,0,0,0,0,0,0,0,0,0,0,0,0,0,0,0,0,0,0,0,0,0,0,0,0,0,0,0,0,0,0,0,0,0,-3.2638,-3.2638,0,-3.2591,-3.259,-3.259,-3.2469,-3.2467,-3.2464,-3.2462,-3.2416,-3.2418,-3.2419,0,0,0,0,0,0,0,0,0,0,0,0,0,-3.2629,-3.263,-3.2638,-3.2638,-3.2637,-3.2591,-3.259,-3.259,-3.247,-3.2466,-3.2463,-3.246,-3.2416,-3.2417,-3.2419,0,0,0,0,0,0,0,0,0,0,0,0,0,-3.2613,-3.263,-3.2638,-3.2572,-3.2565,-3.2591,-3.259,-3.2589,-3.247,-3.2466,-3.2462,-3.2459,-3.2416,-3.2417,-3.2419,-3.2507,0,0,-3.2425,-3.2425,0,0,0,0,0,0,0,0,-3.2614,-3.2613,-3.2582,-3.2576,-3.2569,-3.2532,-3.257,-3.2562,-3.2471,-3.2506,-3.2461,-3.2457,-3.2458,-3.2456,-3.2456,-3.2505,-3.2503,-3.2425,-3.2426,-3.2427,-3.2427,0,0,0,0,0,0,0,-3.2615,-3.2615,-3.262,-3.2582,-3.2574,-3.2545,-3.2539,-3.2568,-3.2505,-3.2503,-3.2494,-3.249,-3.2454,-3.2454,-3.2454,-3.2502,-3.2425,-3.2426,-3.2427,-3.2428,-3.2622,-3.2626,0,0,0,0,0,0,-3.2625,-3.2616,-3.2621,-3.2618,-3.2582,-3.2549,-3.2541,-3.2548,-3.2504,-3.2493,-3.2493,-3.2485,-3.2453,-3.2452,-3.2452,-3.2552,-3.2427,-3.2428,-3.2429,-3.2618,-3.2623,-3.2628,0,0,0,0,0,0,-3.2626,-3.2627,-3.2623,-3.2615,-3.2612,-3.2553,-3.2561,-3.2549,-3.2549,-3.2496,-3.2485,-3.2505,-3.245,-3.2449,-3.2494,-3.2548,-3.2429,-3.2431,-3.2614,-3.262,-3.2626,-3.2753,0,0,0,0,0,0,-3.2626,-3.2628,-3.2659,-3.2616,-3.2613,-3.2665,-3.2564,-3.2551,-3.2552,-3.254,-3.2505,-3.2495,-3.2447,-3.2492,-3.2496,-3.2549,-3.2432,-3.2608,-3.2616,-3.2624,-3.2743,-3.2762,-3.2779,0,0,0,0,0,-3.2626,-3.2698,-3.2661,-3.2663,-3.2651,-3.2668,-3.2667,-3.2609,-3.2557,-3.2589,-3.2556,-3.2496,-3.2543,-3.2498,-3.2501,-3.2555,-3.2605,-3.2614,-3.2623,-3.2735,-3.2759,-3.2778,0,0,0,0,0,0,-3.2749,-3.2691,-3.265,-3.271,-3.2695,-3.2648,-3.2686,-3.2635,-3.2636,-3.2625,-3.2554,-3.2548,-3.2602,-3.2583,-3.2535,-3.2639,-3.2564,-3.2574,-3.2648,-3.267,-3.2687,-3.269,-3.2434,0,0,0,0,0,-3.2783,-3.2801,-3.2749,-3.2807,-3.2802,-3.2746,-3.2751,-3.2708,-3.2691,-3.2684,-3.2653,-3.264,-3.2651,-3.266,-3.2667,-3.2741,-3.2732,-3.278,-3.2798,-3.2813,-3.2822,-3.286,-3.2881,-3.2658,-3.2658,-3.2658,0,0,-3.2854,-3.2824,-3.2839,-3.2831,-3.2814,-3.2836,-3.2741,-3.2767,-3.2782,-3.2688,-3.2728,-3.2706,-3.2686,-3.2746,-3.277,-3.2732,-3.2882,-3.2824,-3.2837,-3.2837,-3.2871,-3.2892,-3.2911,-3.2664,-3.2663,-3.2662,0,0,-3.2992,-3.2972,-3.3017,-3.3003,-3.2979,-3.2942,-3.2953,-3.2915,-3.2896,-3.2935,-3.2864,-3.2883,-3.2904,-3.2892,-3.2889,-3.3027,-3.2972,-3.3032,-3.3123,-3.3161,-3.3179,-3.3194,-3.3242,-3.326,-3.3041,-3.3042,-3.3042,0,-3.3083,-3.311,-3.3048,-3.3078,-3.3077,-3.2993,-3.3039,-3.3029,-3.3009,-3.3011,-3.2968,-3.2993,-3.2974,-3.303,-3.3063,-3.3064,-3.3075,-3.3034,-3.3181,-3.3196,-3.3209,-3.3254,-3.3273,-3.3049,-3.3048,-3.3047,-3.3047,0,-3.3223,-3.3243,-3.3283,-3.3266,-3.3269,-3.3308,-3.3253,-3.3265,-3.3223,-3.3191,-3.3232,-3.3207,-3.3207,-3.3218,-3.3177,-3.3269,-3.3245,-3.3193,-3.3116,-3.3238,-3.328,-3.3297,-3.3059,-3.3057,-3.3055,-3.3053,0,0,-3.3434,-3.3383,-3.3399,-3.339,-3.3359,-3.3374,-3.341,-3.341,-3.3422,-3.3412,-3.3441,-3.3462,-3.3413,-3.341,-3.3368,-3.3402,-3.3512,-3.3345,-3.3343,-3.3376,-3.3611,-3.3649,-3.367,-3.3476,-3.348,-3.3482,-3.3612,0,-3.3564,-3.362,-3.3566,-3.3634,-3.3652,-3.3574,-3.3606,-3.3591,-3.3563,-3.3576,-3.3545,-3.356,-3.3496,-3.3493,-3.3523,-3.3492,-3.3558,-3.3482,-3.3502,-3.3504,-3.3508,-3.3692,-3.3732,-3.3856,-3.3628,-3.3631,-3.3633,0,-3.3721,-3.3718,-3.3788,-3.3753,-3.3759,-3.3788,-3.3784,-3.3797,-3.378,-3.3757,-3.3755,-3.3704,-3.3738,-3.3665,-3.3712,-3.3662,-3.3668,-3.3654,-3.3657,-3.3655,-3.3574,-3.3694,-3.3894,-3.3912,-3.3658,-3.3656,-3.3654,0,-3.3867,-3.3881,-3.3924,-3.392,-3.388,-3.3903,-3.3888,-3.3866,-3.387,-3.3869,-3.387,-3.3873,-3.3875,-3.3879,-3.383,-3.3782,-3.3883,-3.3806,-3.3866,-3.3867,-3.3888,-3.3887,-3.4091,-3.3896,-3.3895,-3.3895,-3.3895,0,-3.4016,-3.4062,-3.3989,-3.4016,-3.4065,-3.4004,-3.4055,-3.4032,-3.4014,-3.4036,-3.397,-3.3992,-3.3927,-3.3943,-3.3906,-3.3951,-3.3952,-3.3935,-3.3924,-3.394,-3.3942,-3.3941,-3.3931,-3.39,-3.3899,-3.3898,-3.3897,0,-3.4186,-3.414,-3.4182,-3.4142,-3.4133,-3.4171,-3.4137,-3.4161,-3.413,-3.4158,-3.4161,-3.4112,-3.4128,-3.4081,-3.4089,-3.4064,-3.4128,-3.4104,-3.4134,-3.4126,-3.4187,-3.4182,-3.4396,-3.4421,-3.4212,-3.4214,-3.4216,0,-3.4283,-3.4316,-3.428,-3.4289,-3.4278,-3.4294,-3.4297,-3.424,-3.4247,-3.4231,-3.4257,-3.4267,-3.4271,-3.43,-3.4266,-3.4272,-3.4247,-3.4322,-3.4248,-3.4262,-3.4247,-3.4245,-3.4248,-3.4337,-3.4339,-3.4342,-3.4343,0,-3.446,-3.4436,-3.4443,-3.4443,-3.445,-3.4447,-3.4441,-3.4453,-3.4391,-3.4403,-3.4417,-3.4421,-3.443,-3.4441,-3.444,-3.4426,-3.4375,-3.4368,-3.4381,-3.4396,-3.4411,-3.4403,-3.4174,-3.4362,-3.436,-3.4359,-3.4358,-3.4357,-3.4595,-3.462,-3.4599,-3.461,-3.4599,-3.4595,-3.4615,-3.4587,-3.4598,-3.4599,-3.4566,-3.4588,-3.4571,-3.4565,-3.4556,-3.4573,-3.4539,-3.4559,-3.4564,-3.457,-3.4579,-3.4411,-3.4573,-3.4573,-3.4572,-3.4572,-3.4571,0,-3.4767,-3.475,-3.4761,-3.4753,-3.4762,-3.4714,-3.4705,-3.4716,-3.4735,-3.4724,-3.473,-3.4748,-3.4759,-3.4727,-3.4733,-3.4753,-3.473,-3.4756,-3.4753,-3.4751,-3.461,-3.4597,-3.4775,-3.4775,-3.4775,-3.4775,-3.4775,-3.4775,-3.4857,-3.4898,-3.4872,-3.4908,-3.489,-3.491,-3.4909,-3.4906,-3.4896,-3.4918,-3.4927,-3.4906,-3.4887,-3.4891,-3.49,-3.489,-3.4895,-3.493,-3.4912,-3.4781,-3.4761,-3.4742,-3.4729,-3.4932,-3.4932,-3.5051,-3.5052,-3.5053]},{"header":{"parameterUnit":"m.s-1","parameterCategory":1,"la1":30.2991,"la2":30.254,"lo1":-89.0895,"lo2":-89.0444,"dy":0.0017,"dx":0.0017,"nx":28,"ny":28,"refTime":"2025-08-25T03:00:00:Z","depth":0,"parameterNumber":3,"parameterNumberName":"V-component_of_WINDS"},"data":[0,0,0,0,0,0,0,0,0,0,0,0,0,0,0,0,0,0,0,0,0,0,0,0,0,0,0,0,0,0,0,0,0,0,0,0,0,0,0,0,0,0,0,0,0,0,0,0,0,0,0,0,0,0,0,0,0,0,1.515,1.515,0,1.5183,1.5184,1.5184,1.5239,1.524,1.5241,1.5242,1.5273,1.5272,1.5272,0,0,0,0,0,0,0,0,0,0,0,0,0,1.513,1.5131,1.515,1.515,1.5151,1.5183,1.5184,1.5184,1.5239,1.524,1.5242,1.5243,1.5273,1.5273,1.5272,0,0,0,0,0,0,0,0,0,0,0,0,0,1.5149,1.5131,1.515,1.5182,1.5185,1.5183,1.5184,1.5184,1.5239,1.524,1.5242,1.5243,1.5273,1.5273,1.5272,1.524,0,0,1.5272,1.5272,0,0,0,0,0,0,0,0,1.5148,1.5149,1.5177,1.518,1.5184,1.5209,1.5188,1.5203,1.5239,1.5218,1.5242,1.5244,1.525,1.5252,1.5254,1.5242,1.5243,1.5272,1.5271,1.5271,1.5271,0,0,0,0,0,0,0,1.5146,1.5148,1.5163,1.5177,1.5181,1.5194,1.5198,1.5191,1.5225,1.522,1.5224,1.5228,1.5252,1.5255,1.5256,1.5243,1.5272,1.5271,1.5271,1.5271,1.5206,1.5205,0,0,0,0,0,0,1.5141,1.5147,1.5162,1.5164,1.5169,1.5193,1.5198,1.5199,1.5225,1.5231,1.5227,1.523,1.5254,1.5256,1.5257,1.5221,1.5271,1.5271,1.5271,1.5208,1.5206,1.5204,0,0,0,0,0,0,1.514,1.5142,1.5161,1.5157,1.516,1.5192,1.5193,1.5199,1.5202,1.523,1.5236,1.5223,1.5255,1.5257,1.5244,1.5222,1.5271,1.5271,1.521,1.5207,1.5205,1.5148,0,0,0,0,0,0,1.5139,1.5141,1.513,1.5156,1.516,1.5148,1.5191,1.5199,1.5202,1.5207,1.5228,1.5233,1.5257,1.5244,1.5244,1.5223,1.5271,1.5212,1.5208,1.5206,1.5152,1.5144,1.5137,0,0,0,0,0,1.5138,1.5111,1.5129,1.513,1.5147,1.5147,1.5149,1.5178,1.52,1.5188,1.5207,1.5233,1.5225,1.5243,1.5243,1.5221,1.5213,1.5209,1.5206,1.5155,1.5145,1.5137,0,0,0,0,0,0,1.5079,1.5115,1.5135,1.5116,1.5128,1.5156,1.5142,1.5166,1.5171,1.5176,1.521,1.5215,1.5197,1.5208,1.5227,1.5192,1.5223,1.522,1.5185,1.5176,1.5168,1.5165,1.527,0,0,0,0,0,1.5064,1.5063,1.5094,1.5073,1.5079,1.5109,1.511,1.5132,1.5145,1.515,1.5168,1.5179,1.5179,1.5178,1.518,1.5155,1.516,1.514,1.5133,1.5126,1.5122,1.5109,1.5101,1.5192,1.5192,1.5192,0,0,1.5032,1.5052,1.5048,1.5062,1.5074,1.507,1.5113,1.5107,1.5105,1.5149,1.5138,1.5151,1.5166,1.5147,1.5139,1.5155,1.5098,1.5122,1.5117,1.5116,1.5105,1.5096,1.5088,1.519,1.519,1.5191,0,0,1.4973,1.4988,1.4973,1.4984,1.5003,1.5024,1.502,1.5045,1.5056,1.5047,1.508,1.5077,1.5077,1.5086,1.5091,1.5037,1.5061,1.5036,1.4997,1.4984,1.4976,1.497,1.495,1.4942,1.5033,1.5032,1.5032,0,1.493,1.4927,1.4961,1.4954,1.4959,1.5001,1.4986,1.4995,1.5013,1.5014,1.5033,1.5035,1.5048,1.5031,1.5018,1.5021,1.5017,1.5033,1.4975,1.4969,1.4964,1.4945,1.4937,1.5029,1.503,1.503,1.503,0,1.4874,1.4871,1.4857,1.4874,1.4878,1.4866,1.4898,1.4898,1.4919,1.4938,1.4927,1.4945,1.4951,1.4949,1.497,1.4935,1.4945,1.4969,1.5001,1.4951,1.4934,1.4927,1.5025,1.5026,1.5027,1.5028,0,0,1.4774,1.4813,1.4807,1.4816,1.4841,1.4839,1.4829,1.4837,1.4836,1.4847,1.4839,1.4839,1.4862,1.4868,1.489,1.4879,1.4834,1.4904,1.4905,1.4889,1.4796,1.4777,1.4768,1.4851,1.485,1.4849,1.4795,0,1.4718,1.4705,1.4737,1.4715,1.4713,1.4755,1.4747,1.476,1.4778,1.4778,1.4798,1.4797,1.4828,1.4831,1.4822,1.4841,1.4815,1.4846,1.4842,1.4842,1.4835,1.4759,1.4738,1.4686,1.4788,1.4787,1.4786,0,1.465,1.466,1.4638,1.4666,1.4666,1.4658,1.4668,1.4668,1.4685,1.4699,1.4706,1.4733,1.4725,1.4757,1.4746,1.4766,1.4767,1.4777,1.4775,1.4774,1.4809,1.4754,1.467,1.4661,1.4776,1.4777,1.4778,0,1.4578,1.4586,1.4575,1.4581,1.4612,1.4606,1.4618,1.4637,1.464,1.4649,1.4651,1.4659,1.4662,1.4667,1.4694,1.4716,1.468,1.4715,1.4689,1.4689,1.4678,1.4678,1.4591,1.4681,1.4682,1.4682,1.4682,0,1.4511,1.4496,1.4543,1.4535,1.452,1.4557,1.454,1.4557,1.4573,1.4569,1.4606,1.4601,1.464,1.4639,1.4661,1.4648,1.4649,1.4659,1.4665,1.4655,1.4653,1.4654,1.4658,1.468,1.468,1.4681,1.4681,0,1.4427,1.4458,1.4448,1.448,1.4487,1.4474,1.4501,1.4495,1.4517,1.4511,1.4512,1.4544,1.4546,1.4575,1.4582,1.4597,1.4574,1.4587,1.4568,1.4572,1.4544,1.4546,1.4453,1.4442,1.4541,1.4541,1.454,0,1.438,1.437,1.4402,1.4403,1.4414,1.4414,1.4419,1.4455,1.4457,1.4477,1.4468,1.4473,1.4478,1.4478,1.4502,1.4507,1.452,1.4487,1.452,1.4511,1.4517,1.4517,1.4516,1.4479,1.4478,1.4477,1.4476,0,1.4295,1.4311,1.4316,1.4327,1.4331,1.4341,1.4353,1.4351,1.4391,1.4392,1.4395,1.4399,1.4408,1.4411,1.4422,1.4434,1.446,1.4466,1.446,1.4448,1.4437,1.4442,1.4547,1.4467,1.4468,1.4468,1.4469,1.4469,1.4227,1.422,1.4242,1.4246,1.426,1.4271,1.4267,1.4289,1.4292,1.4303,1.4324,1.4323,1.4341,1.4358,1.4368,1.4367,1.4384,1.4376,1.4373,1.437,1.4364,1.444,1.437,1.437,1.437,1.437,1.4371,0,1.4143,1.4159,1.4163,1.418,1.4183,1.4212,1.4227,1.4227,1.4227,1.4242,1.4248,1.4251,1.4255,1.428,1.4287,1.4282,1.4294,1.4282,1.4281,1.4284,1.435,1.4353,1.4272,1.4272,1.4272,1.4272,1.4272,1.4272,1.4099,1.4088,1.4108,1.4105,1.4121,1.4122,1.4128,1.4138,1.4151,1.4153,1.4157,1.4175,1.4194,1.4203,1.4208,1.4215,1.4215,1.4198,1.4209,1.427,1.4279,1.4288,1.4292,1.4198,1.4198,1.4143,1.4143,1.4142]}]]